QPF
0.00 0.00 0.00 0.00 0.00 0.00 0.00 0.00 0.00 0.00 0.00 0.00 0.00 0.00 0.00 0.00 0.00 0.00 0.00 0.00 0.00 0.00 0.00 0.00 0.00 0.00 0.00 0.00 0.00 0.00 0.00 0.00 0.00 0.00 0.00 0.00 0.00 0.00 0.00 0.00 0.00 0.00 0.00
0.00 0.00 0.00 0.00 0.00 0.00 0.00 0.00 0.00 0.00 0.00 0.00 0.00 0.00 0.00 0.00 0.00 0.00 0.00 0.00 0.00 0.00 0.00 0.00 0.00 0.00 0.00 0.00 0.00 0.00 0.00 0.00 0.00 0.00 0.00 0.00 0.00 0.00 0.00 0.00 0.00 0.00 0.00
0.00 0.00 0.00 0.00 0.00 0.00 0.00 0.00 0.00 0.00 0.00 0.00 0.00 0.00 0.00 0.00 0.00 0.00 0.00 0.00 0.00 0.00 0.00 0.00 0.00 0.00 0.00 0.00 0.00 0.00 0.00 0.00 0.00 0.00 0.00 0.00 0.00 0.00 0.00 0.00 0.00 0.00 0.00
0.00 0.00 0.00 0.00 0.00 0.00 0.00 0.00 0.00 0.00 0.00 0.00 0.00 0.00 0.00 0.00 0.00 0.00 0.00 0.00 0.00 0.00 0.00 0.00 0.00 0.00 0.00 0.00 0.00 0.00 0.00 0.00 0.00 0.00 0.00 0.00 0.00 0.00 0.00 0.00 0.00 0.00 0.00
0.00 0.00 0.00 0.00 0.00 0.00 0.00 0.00 0.00 0.00 0.00 0.00 0.00 0.00 0.00 0.00 0.00 0.00 0.00 0.00 0.00 0.00 0.00 0.00 0.00 0.00 0.00 0.00 0.00 0.00 0.00 0.00 0.00 0.00 0.00 0.00 0.00 0.00 0.00 0.00 0.00 0.00 0.00
0.00 0.00 0.00 0.00 0.00 0.00 0.00 0.00 0.00 0.00 0.00 0.00 0.00 0.00 0.00 0.00 0.00 0.00 0.00 0.00 0.00 0.00 0.00 0.00 0.00 0.00 0.00 0.00 0.00 0.00 0.00 0.00 0.00 0.00 0.00 0.00 0.00 0.00 0.00 0.00 0.01 0.00 0.01
0.00 0.00 0.00 0.00 0.00 0.00 0.00 0.00 0.00 0.00 0.00 0.00 0.00 0.00 0.00 0.00 0.00 0.00 0.00 0.00 0.00 0.00 0.00 0.00 0.00 0.00 0.00 0.00 0.00 0.00 0.00 0.00 0.00 0.00 0.00 0.00 0.00 0.00 0.00 0.00 0.00 0.01 0.01
0.00 0.00 0.00 0.00 0.00 0.00 0.00 0.00 0.00 0.00 0.00 0.00 0.00 0.00 0.00 0.00 0.00 0.00 0.00 0.00 0.00 0.00 0.00 0.00 0.00 0.00 0.00 0.00 0.00 0.00 0.00 0.00 0.00 0.00 0.00 0.00 0.00 0.00 0.00 0.00 0.00 0.01 0.00
0.00 0.00 0.00 0.00 0.00 0.00 0.00 0.00 0.00 0.00 0.00 0.00 0.00 0.00 0.00 0.00 0.00 0.00 0.00 0.00 0.00 0.00 0.00 0.00 0.00 0.00 0.00 0.00 0.00 0.00 0.00 0.00 0.00 0.00 0.00 0.00 0.00 0.00 0.00 0.01 0.01 0.01 0.01
0.00 0.00 0.00 0.00 0.00 0.00 0.00 0.00 0.00 0.00 0.00 0.00 0.00 0.00 0.00 0.00 0.00 0.00 0.00 0.00 0.00 0.00 0.00 0.00 0.00 0.00 0.00 0.00 0.00 0.00 0.00 0.00 0.00 0.00 0.00 0.00 0.00 0.00 0.00 0.00 0.01 0.02 0.01
0.00 0.00 0.00 0.00 0.00 0.00 0.00 0.00 0.00 0.00 0.00 0.00 0.00 0.00 0.00 0.00 0.00 0.00 0.00 0.00 0.00 0.00 0.00 0.00 0.00 0.00 0.00 0.00 0.00 0.00 0.00 0.00 0.00 0.00 0.00 0.00 0.00 0.00 0.00 0.00 0.01 0.02 0.02
0.00 0.00 0.00 0.00 0.00 0.00 0.00 0.00 0.00 0.00 0.00 0.00 0.00 0.00 0.00 0.00 0.00 0.00 0.00 0.00 0.00 0.00 0.00 0.00 0.00 0.00 0.00 0.00 0.00 0.00 0.00 0.00 0.00 0.00 0.00 0.00 0.00 0.01 0.00 0.00 0.01 0.00 0.01
0.00 0.00 0.00 0.00 0.00 0.00 0.00 0.00 0.00 0.00 0.00 0.00 0.00 0.00 0.00 0.00 0.00 0.00 0.00 0.00 0.00 0.00 0.00 0.00 0.00 0.00 0.00 0.00 0.00 0.00 0.00 0.00 0.00 0.00 0.00 0.00 0.00 0.00 0.00 0.00 0.00 0.00 0.00
0.00 0.00 0.00 0.00 0.00 0.00 0.00 0.00 0.00 0.00 0.00 0.00 0.00 0.00 0.00 0.00 0.00 0.00 0.00 0.00 0.00 0.00 0.00 0.00 0.00 0.00 0.00 0.00 0.00 0.00 0.00 0.00 0.00 0.00 0.00 0.00 0.00 0.00 0.00 0.01 0.01 0.00 0.00
0.00 0.00 0.00 0.00 0.00 0.00 0.00 0.00 0.00 0.00 0.00 0.00 0.00 0.00 0.00 0.00 0.00 0.00 0.00 0.00 0.00 0.00 0.00 0.00 0.00 0.00 0.00 0.00 0.00 0.00 0.00 0.00 0.00 0.00 0.00 0.00 0.00 0.00 0.00 0.00 0.01 0.00 0.00
0.00 0.00 0.00 0.00 0.00 0.00 0.00 0.00 0.00 0.00 0.00 0.00 0.00 0.00 0.00 0.00 0.00 0.00 0.00 0.00 0.00 0.00 0.00 0.00 0.00 0.00 0.00 0.00 0.00 0.00 0.00 0.00 0.00 0.00 0.00 0.00 0.00 0.00 0.00 0.00 0.01 0.01 0.00
0.00 0.00 0.00 0.00 0.00 0.00 0.00 0.00 0.00 0.00 0.00 0.00 0.00 0.00 0.00 0.00 0.00 0.00 0.00 0.00 0.00 0.00 0.00 0.00 0.00 0.00 0.00 0.00 0.00 0.00 0.00 0.00 0.00 0.00 0.00 0.00 0.00 0.00 0.00 0.00 0.01 0.01 0.00
0.00 0.00 0.00 0.00 0.00 0.00 0.00 0.00 0.00 0.00 0.00 0.00 0.00 0.00 0.00 0.00 0.00 0.00 0.00 0.00 0.00 0.00 0.00 0.00 0.00 0.00 0.00 0.00 0.00 0.00 0.00 0.00 0.00 0.00 0.00 0.00 0.00 0.00 0.00 0.00 0.01 0.01 0.00
0.00 0.00 0.00 0.00 0.00 0.00 0.00 0.00 0.00 0.00 0.00 0.00 0.00 0.00 0.00 0.00 0.00 0.00 0.00 0.00 0.00 0.00 0.00 0.00 0.00 0.00 0.00 0.00 0.00 0.00 0.00 0.00 0.00 0.00 0.00 0.00 0.00 0.00 0.00 0.00 0.01 0.01 0.00
0.00 0.00 0.00 0.00 0.00 0.00 0.00 0.00 0.00 0.00 0.00 0.00 0.00 0.00 0.00 0.00 0.00 0.00 0.00 0.00 0.00 0.00 0.00 0.00 0.00 0.00 0.00 0.00 0.00 0.00 0.00 0.00 0.00 0.00 0.00 0.00 0.00 0.00 0.00 0.00 0.01 0.00 0.00
0.00 0.00 0.00 0.00 0.00 0.00 0.00 0.00 0.00 0.00 0.00 0.00 0.00 0.00 0.00 0.00 0.00 0.00 0.00 0.00 0.00 0.00 0.00 0.00 0.00 0.00 0.00 0.00 0.00 0.00 0.00 0.00 0.00 0.00 0.00 0.00 0.00 0.00 0.00 0.00 0.01 0.00 0.00
0.00 0.00 0.00 0.00 0.00 0.00 0.00 0.00 0.00 0.00 0.00 0.00 0.00 0.00 0.00 0.00 0.00 0.00 0.00 0.00 0.00 0.00 0.00 0.00 0.00 0.00 0.00 0.00 0.00 0.00 0.00 0.00 0.00 0.00 0.00 0.00 0.00 0.00 0.00 0.00 0.00 0.00 0.00
0.00 0.00 0.00 0.00 0.00 0.00 0.00 0.00 0.00 0.00 0.00 0.00 0.00 0.00 0.00 0.00 0.00 0.00 0.00 0.00 0.00 0.00 0.00 0.00 0.00 0.00 0.00 0.00 0.00 0.00 0.00 0.00 0.00 0.00 0.00 0.00 0.00 0.00 0.00 0.00 0.00 0.00 0.00
0.00 0.00 0.00 0.00 0.00 0.00 0.00 0.00 0.00 0.00 0.00 0.00 0.00 0.00 0.00 0.00 0.00 0.00 0.00 0.00 0.00 0.00 0.00 0.00 0.00 0.00 0.00 0.00 0.00 0.00 0.00 0.00 0.00 0.00 0.00 0.00 0.00 0.00 0.00 0.00 0.00 0.00 0.00
0.00 0.00 0.00 0.00 0.00 0.00 0.00 0.00 0.00 0.00 0.00 0.00 0.00 0.00 0.00 0.00 0.00 0.00 0.00 0.00 0.00 0.00 0.00 0.00 0.00 0.00 0.00 0.00 0.00 0.00 0.00 0.00 0.00 0.00 0.00 0.00 0.00 0.00 0.00 0.00 0.00 0.00 0.00
0.00 0.00 0.00 0.00 0.00 0.00 0.00 0.00 0.00 0.00 0.00 0.00 0.00 0.00 0.00 0.00 0.00 0.00 0.00 0.00 0.00 0.00 0.00 0.00 0.00 0.00 0.00 0.00 0.00 0.00 0.00 0.00 0.00 0.00 0.00 0.00 0.00 0.00 0.00 0.00 0.00 0.00 0.00
MSLP
1019.83 1020.75 1021.53 1022.20 1022.85 1023.39 1023.71 1024.13 1024.71 1025.18 1025.49 1025.97 1026.30 1026.43 1026.75 1026.95 1027.17 1027.38 1027.40 1027.39 1027.41 1027.62 1027.59 1027.52 1027.51 1027.34 1027.08 1026.96 1026.96 1026.62 1026.34 1026.17 1025.74 1024.98 1025.00 1024.38 1024.00 1023.67 1023.37 1022.96 1022.23 1021.43 1020.78
1019.59 1020.46 1021.34 1022.14 1022.80 1023.33 1023.80 1024.32 1024.82 1025.18 1025.45 1025.95 1026.35 1026.55 1026.86 1026.92 1027.29 1027.71 1027.85 1027.71 1027.74 1027.89 1027.91 1027.77 1027.71 1027.64 1027.56 1027.51 1027.31 1026.95 1026.69 1026.74 1026.66 1025.72 1025.16 1024.52 1024.10 1023.77 1023.42 1022.92 1022.30 1021.77 1021.02
1019.23 1020.29 1021.26 1022.09 1022.71 1023.25 1023.80 1024.36 1024.81 1025.21 1025.52 1025.87 1026.20 1026.54 1026.70 1027.04 1027.62 1027.94 1027.94 1027.99 1028.13 1028.18 1028.20 1028.06 1028.09 1028.16 1028.18 1028.23 1027.90 1027.43 1027.27 1027.06 1026.64 1026.06 1025.26 1024.81 1024.37 1023.90 1023.46 1023.04 1022.68 1022.01 1021.19
1018.93 1020.05 1021.06 1021.96 1022.69 1023.28 1023.81 1024.25 1024.65 1025.02 1025.39 1025.77 1026.08 1026.35 1026.85 1027.23 1027.59 1027.79 1027.93 1028.13 1028.14 1028.09 1028.31 1028.35 1028.42 1028.91 1029.24 1029.02 1028.52 1028.16 1027.85 1027.48 1026.96 1026.47 1025.82 1025.23 1025.12 1024.39 1024.18 1023.53 1022.86 1022.39 1021.48
1018.64 1019.67 1020.79 1021.66 1022.35 1022.94 1023.48 1024.03 1024.44 1024.87 1025.15 1025.44 1025.84 1026.41 1026.84 1027.21 1027.44 1027.83 1027.97 1028.07 1028.06 1027.97 1027.99 1028.10 1028.21 1029.30 1029.78 1029.74 1029.45 1028.98 1028.54 1028.09 1027.52 1026.95 1026.44 1026.02 1025.43 1025.04 1024.79 1024.37 1023.65 1022.77 1021.72
1018.21 1019.15 1020.26 1021.14 1021.79 1022.54 1023.22 1023.76 1024.28 1024.66 1024.96 1025.33 1025.82 1026.28 1026.77 1026.78 1029.07 1029.28 1029.13 1028.00 1028.01 1028.01 1028.04 1028.04 1027.99 1029.08 1028.77 1029.27 1029.42 1029.07 1028.91 1028.49 1028.11 1027.68 1027.18 1026.44 1026.03 1025.83 1025.47 1024.99 1024.06 1023.06 1021.67
1017.67 1018.56 1019.59 1020.56 1021.32 1022.20 1022.87 1023.46 1024.04 1024.46 1024.86 1025.26 1025.67 1026.13 1026.66 1027.30 1029.03 1029.35 1029.52 1028.14 1028.06 1028.14 1028.19 1028.19 1027.99 1027.87 1028.62 1029.03 1028.64 1028.08 1027.90 1028.28 1028.33 1028.23 1027.28 1027.06 1026.63 1026.30 1025.81 1024.99 1024.32 1023.62 1022.55
1017.05 1017.95 1019.05 1020.03 1020.86 1021.78 1022.46 1023.06 1023.71 1024.21 1024.64 1025.06 1025.53 1026.01 1026.56 1027.41 1028.81 1029.33 1029.58 1028.71 1027.94 1027.99 1028.26 1028.35 1028.45 1028.36 1029.65 1029.78 1029.08 1027.71 1027.17 1027.06 1027.63 1027.70 1027.68 1027.29 1026.84 1026.40 1025.90 1025.05 1024.38 1023.62 1022.67
1016.32 1017.24 1018.24 1019.38 1020.23 1021.20 1021.93 1022.63 1023.28 1023.82 1024.34 1024.74 1025.21 1025.79 1026.35 1027.62 1028.71 1029.18 1029.39 1028.03 1027.82 1027.78 1027.84 1028.14 1028.61 1028.69 1030.20 1030.07 1029.29 1027.91 1027.48 1027.60 1027.87 1027.75 1027.55 1027.11 1026.63 1026.08 1025.63 1024.90 1024.20 1023.48 1022.61
1015.45 1016.43 1017.53 1018.64 1019.56 1020.49 1021.36 1022.19 1022.83 1023.43 1023.93 1024.32 1024.74 1025.38 1025.94 1026.56 1028.44 1029.00 1029.16 1028.08 1027.80 1027.60 1027.59 1027.78 1029.60 1029.69 1030.07 1030.00 1029.48 1028.43 1028.09 1028.52 1028.09 1027.55 1027.10 1026.53 1026.01 1025.40 1025.08 1024.66 1024.21 1023.58 1023.04
1014.92 1015.92 1016.87 1017.92 1018.81 1019.79 1020.78 1021.71 1022.33 1022.92 1023.32 1023.87 1024.33 1024.99 1025.55 1025.96 1027.60 1028.75 1029.09 1028.63 1028.03 1027.88 1027.71 1027.79 1028.63 1029.98 1029.86 1029.82 1029.62 1028.88 1028.99 1028.74 1028.26 1027.61 1027.10 1026.57 1025.89 1025.35 1024.98 1024.50 1024.03 1023.75 1023.31
1014.44 1015.39 1016.32 1017.34 1018.22 1019.09 1020.13 1021.11 1021.80 1022.36 1022.88 1023.45 1024.01 1024.69 1025.35 1025.78 1027.23 1028.49 1028.88 1029.18 1029.13 1028.48 1027.88 1028.08 1028.66 1029.73 1029.73 1029.55 1029.31 1029.09 1028.84 1028.59 1027.93 1027.51 1027.00 1026.50 1025.98 1025.47 1025.08 1024.54 1023.93 1023.65 1023.34
1013.73 1014.79 1015.81 1016.88 1017.76 1018.48 1019.42 1020.32 1021.16 1021.82 1022.45 1023.03 1023.63 1024.24 1024.96 1025.55 1026.52 1028.00 1028.62 1029.04 1029.42 1029.22 1027.86 1029.14 1029.47 1029.48 1029.34 1029.06 1028.99 1028.69 1028.61 1028.02 1027.73 1027.47 1027.11 1026.68 1026.30 1025.79 1025.08 1024.40 1023.88 1023.62 1023.18
1013.09 1014.18 1015.32 1016.34 1017.26 1018.07 1018.97 1019.83 1020.64 1021.33 1021.99 1022.54 1023.18 1023.84 1024.56 1025.32 1026.02 1027.13 1027.91 1028.59 1029.28 1029.13 1028.69 1028.35 1028.51 1028.89 1028.77 1028.51 1028.26 1027.95 1028.03 1027.95 1027.84 1027.57 1027.24 1026.80 1026.27 1025.86 1025.24 1024.42 1023.92 1023.68 1023.33
1012.65 1013.59 1014.64 1015.80 1016.85 1017.66 1018.56 1019.52 1020.36 1021.25 1021.81 1022.20 1022.76 1023.51 1024.15 1024.82 1025.38 1025.83 1026.58 1027.22 1027.67 1028.19 1028.44 1027.87 1027.77 1027.77 1027.60 1027.51 1027.58 1027.76 1027.99 1027.98 1027.75 1027.58 1027.22 1026.86 1026.41 1025.93 1025.46 1024.71 1024.12 1023.73 1023.61
1011.89 1012.92 1013.94 1015.12 1016.40 1017.28 1018.27 1019.91 1020.63 1021.27 1022.23 1022.39 1022.58 1023.13 1024.05 1024.32 1025.36 1026.17 1026.86 1027.40 1027.83 1028.48 1028.46 1027.72 1027.51 1027.59 1027.55 1027.47 1027.40 1027.62 1027.81 1027.83 1027.70 1027.48 1027.22 1026.90 1026.56 1026.13 1025.69 1025.03 1024.24 1023.82 1023.77
1011.15 1012.22 1013.38 1014.52 1015.73 1016.72 1017.88 1019.21 1020.55 1022.28 1022.86 1022.96 1023.22 1023.49 1023.74 1024.74 1025.69 1026.39 1027.09 1027.69 1028.24 1028.82 1028.29 1027.40 1027.29 1027.32 1027.28 1027.13 1027.19 1027.56 1027.76 1027.78 1027.60 1027.48 1027.24 1026.97 1026.67 1026.31 1025.92 1025.18 1024.40 1023.97 1023.86
1010.90 1011.90 1012.92 1014.02 1015.17 1016.18 1017.23 1018.44 1019.64 1021.00 1022.09 1023.09 1023.85 1024.01 1024.47 1025.14 1025.83 1026.48 1027.24 1027.93 1028.19 1028.27 1027.68 1026.88 1026.80 1026.84 1026.85 1026.96 1027.17 1027.48 1027.74 1027.73 1027.51 1027.36 1027.21 1027.05 1026.76 1026.40 1025.92 1025.28 1024.60 1024.22 1024.00
1010.36 1011.26 1012.37 1013.67 1014.60 1015.48 1016.48 1017.63 1018.66 1019.84 1020.82 1021.78 1023.07 1024.32 1024.65 1025.27 1025.88 1026.49 1027.03 1026.91 1026.63 1026.42 1026.29 1026.31 1026.39 1026.58 1026.68 1026.88 1027.20 1027.65 1027.73 1027.63 1027.54 1027.36 1027.20 1027.08 1026.82 1026.47 1025.97 1025.35 1024.79 1024.45 1024.24
1009.96 1010.68 1011.81 1013.03 1014.04 1015.04 1015.79 1016.77 1017.68 1018.62 1019.52 1020.33 1021.34 1022.46 1023.81 1025.09 1025.54 1025.95 1026.28 1026.21 1025.92 1025.64 1025.60 1025.79 1025.99 1026.26 1026.56 1026.84 1027.17 1027.56 1027.67 1027.51 1027.32 1027.19 1027.11 1027.00 1026.78 1026.48 1025.97 1025.45 1024.90 1024.51 1024.28
1009.85 1010.64 1011.59 1012.68 1013.36 1014.18 1014.93 1015.71 1016.57 1017.36 1018.12 1018.94 1019.76 1020.76 1021.74 1022.77 1023.62 1024.39 1024.78 1025.02 1025.11 1024.99 1025.09 1025.31 1025.64 1026.00 1026.39 1026.67 1026.91 1027.29 1027.60 1027.57 1027.33 1027.18 1027.11 1026.96 1026.76 1026.33 1025.90 1025.41 1024.98 1024.63 1024.30
1009.80 1010.51 1011.35 1012.23 1012.99 1013.70 1014.24 1015.00 1015.72 1016.39 1017.13 1018.00 1018.81 1019.92 1020.91 1021.87 1022.40 1023.01 1023.54 1023.85 1024.03 1024.19 1024.50 1025.04 1025.37 1025.63 1025.94 1026.27 1026.71 1027.13 1027.29 1027.30 1027.19 1027.08 1026.97 1026.80 1026.53 1026.20 1025.75 1025.33 1024.99 1024.67 1024.33
1009.81 1010.46 1011.30 1012.01 1012.66 1013.35 1013.98 1014.41 1014.98 1015.61 1016.31 1017.18 1018.02 1019.15 1020.28 1020.98 1021.45 1021.98 1022.43 1023.10 1023.41 1023.77 1024.15 1024.52 1025.14 1025.54 1025.78 1026.15 1026.52 1026.78 1026.98 1026.97 1026.99 1026.97 1026.88 1026.68 1026.36 1026.01 1025.68 1025.27 1024.91 1024.54 1024.32
1009.86 1010.52 1011.32 1011.77 1012.39 1012.95 1013.44 1013.89 1014.41 1014.86 1015.51 1016.35 1017.22 1018.24 1019.10 1020.00 1020.78 1021.27 1021.87 1022.66 1023.05 1023.78 1024.09 1024.41 1024.71 1025.18 1025.56 1026.12 1026.47 1026.51 1026.62 1026.78 1026.86 1026.79 1026.71 1026.55 1026.30 1025.88 1025.57 1025.19 1024.83 1024.53 1024.27
1010.12 1010.49 1011.12 1011.59 1012.07 1012.62 1013.07 1013.50 1013.87 1014.40 1015.01 1015.69 1016.54 1017.40 1018.25 1019.12 1020.11 1020.90 1021.54 1022.29 1022.87 1023.48 1023.82 1024.40 1024.57 1024.93 1025.57 1026.03 1026.13 1026.25 1026.45 1026.69 1026.74 1026.63 1026.45 1026.23 1025.95 1025.73 1025.44 1025.10 1024.77 1024.45 1024.24
1010.85 1010.92 1011.09 1011.22 1011.60 1012.48 1013.16 1013.60 1013.76 1014.08 1014.58 1015.20 1016.10 1016.82 1017.47 1018.28 1019.16 1020.10 1020.92 1021.70 1022.40 1022.90 1023.40 1023.84 1024.16 1024.60 1025.09 1025.54 1025.86 1025.98 1026.16 1026.35 1026.39 1026.35 1026.26 1025.91 1025.69 1025.40 1025.20 1024.90 1024.52 1024.29 1024.09
Thickness
5578 5572 5568 5564 5561 5558 5556 5554 5550 5547 5545 5543 5541 5540 5538 5536 5532 5530 5530 5529 5528 5524 5522 5521 5519 5517 5515 5511 5505 5502 5498 5493 5487 5485 5477 5471 5465 5457 5447 5437 5430 5423 5414
5574 5569 5564 5559 5555 5552 5549 5546 5543 5541 5542 5539 5536 5535 5532 5532 5530 5525 5523 5524 5522 5519 5517 5516 5514 5511 5506 5501 5498 5494 5489 5481 5474 5471 5468 5463 5456 5446 5436 5427 5418 5408 5400
5571 5564 5558 5554 5551 5547 5543 5540 5539 5537 5537 5535 5533 5531 5531 5529 5523 5520 5520 5518 5515 5513 5511 5510 5506 5502 5497 5491 5489 5486 5479 5473 5468 5463 5460 5453 5444 5436 5427 5416 5406 5397 5388
5568 5561 5555 5549 5546 5543 5538 5537 5536 5535 5534 5532 5531 5530 5527 5523 5520 5518 5516 5514 5512 5511 5507 5504 5499 5491 5484 5482 5480 5475 5469 5464 5459 5453 5448 5442 5430 5423 5413 5408 5399 5386 5382
5566 5559 5552 5547 5544 5541 5539 5536 5535 5532 5532 5531 5529 5526 5523 5520 5518 5516 5513 5511 5510 5509 5505 5500 5495 5485 5478 5471 5467 5463 5458 5453 5448 5443 5436 5428 5421 5412 5401 5391 5385 5379 5373
5566 5560 5553 5547 5544 5541 5538 5536 5533 5532 5530 5528 5526 5524 5521 5521 5510 5506 5505 5509 5507 5504 5500 5496 5492 5483 5478 5471 5463 5457 5450 5445 5439 5431 5422 5418 5409 5398 5388 5379 5374 5370 5372
5567 5562 5556 5550 5546 5541 5538 5535 5532 5530 5528 5526 5525 5523 5520 5516 5506 5503 5500 5504 5502 5498 5494 5490 5486 5482 5473 5464 5459 5456 5451 5439 5429 5419 5414 5405 5398 5389 5380 5373 5365 5357 5355
5568 5563 5556 5551 5546 5541 5537 5534 5531 5528 5527 5525 5522 5521 5518 5513 5504 5499 5496 5496 5498 5494 5488 5483 5478 5474 5461 5454 5450 5451 5446 5436 5423 5413 5405 5397 5389 5381 5373 5367 5361 5353 5348
5570 5565 5559 5553 5547 5541 5537 5534 5531 5528 5526 5524 5522 5518 5516 5508 5501 5496 5492 5496 5495 5491 5485 5478 5472 5467 5454 5447 5445 5447 5440 5428 5416 5408 5399 5392 5384 5376 5369 5363 5356 5351 5348
5572 5567 5561 5554 5549 5543 5538 5533 5530 5528 5525 5524 5521 5517 5514 5511 5499 5492 5488 5491 5491 5488 5483 5478 5463 5456 5448 5441 5438 5438 5431 5417 5411 5404 5395 5388 5381 5374 5366 5358 5351 5344 5338
5571 5566 5561 5556 5551 5545 5539 5533 5530 5528 5526 5523 5520 5516 5512 5507 5496 5489 5484 5483 5486 5481 5477 5473 5463 5449 5444 5437 5431 5428 5418 5410 5404 5398 5391 5383 5377 5370 5362 5354 5345 5337 5331
5570 5564 5560 5555 5551 5546 5540 5534 5530 5528 5525 5521 5518 5513 5507 5503 5493 5485 5480 5475 5471 5471 5471 5464 5455 5444 5438 5432 5426 5419 5412 5405 5399 5393 5386 5379 5372 5364 5356 5348 5340 5332 5324
5570 5564 5558 5553 5549 5546 5541 5536 5531 5528 5524 5520 5516 5511 5505 5500 5492 5483 5477 5470 5465 5461 5463 5453 5445 5439 5434 5430 5424 5416 5409 5402 5395 5387 5380 5373 5364 5357 5351 5343 5335 5327 5320
5570 5564 5557 5551 5547 5544 5539 5535 5530 5527 5522 5519 5514 5509 5503 5496 5491 5480 5473 5466 5460 5457 5455 5451 5444 5438 5434 5427 5422 5413 5404 5396 5388 5382 5374 5367 5359 5352 5346 5340 5332 5323 5316
5568 5563 5557 5550 5544 5540 5536 5531 5527 5522 5519 5517 5512 5506 5501 5495 5490 5484 5476 5469 5465 5458 5451 5448 5445 5440 5434 5427 5419 5409 5398 5389 5383 5376 5369 5362 5355 5348 5340 5334 5328 5321 5311
5567 5563 5557 5549 5541 5537 5533 5521 5514 5516 5510 5508 5506 5503 5497 5492 5485 5478 5471 5464 5457 5450 5445 5445 5440 5433 5427 5421 5414 5404 5394 5386 5378 5371 5364 5358 5350 5343 5336 5329 5325 5319 5309
5567 5561 5555 5548 5540 5535 5529 5521 5513 5499 5498 5498 5495 5493 5491 5483 5476 5469 5462 5454 5447 5440 5439 5441 5435 5428 5422 5418 5411 5400 5389 5381 5374 5367 5360 5353 5346 5339 5331 5326 5323 5317 5308
5561 5551 5552 5545 5538 5532 5527 5519 5512 5504 5498 5492 5484 5483 5480 5474 5468 5461 5453 5446 5441 5435 5436 5437 5432 5426 5420 5413 5404 5394 5384 5377 5371 5364 5356 5349 5342 5335 5329 5324 5320 5314 5307
5557 5554 5549 5540 5535 5530 5525 5517 5512 5504 5498 5493 5483 5473 5470 5465 5460 5453 5447 5446 5445 5444 5439 5433 5427 5420 5414 5407 5398 5387 5379 5373 5367 5360 5353 5345 5339 5332 5327 5322 5318 5311 5305
5551 5546 5542 5536 5530 5525 5522 5516 5511 5505 5498 5495 5487 5478 5468 5458 5453 5449 5444 5442 5441 5440 5436 5429 5423 5415 5408 5400 5391 5381 5374 5369 5364 5357 5350 5343 5336 5330 5326 5320 5316 5311 5306
5542 5538 5534 5530 5527 5523 5519 5514 5509 5505 5501 5496 5491 5482 5475 5466 5459 5451 5446 5442 5438 5436 5431 5425 5418 5410 5402 5395 5387 5378 5369 5364 5359 5353 5346 5340 5334 5329 5325 5320 5315 5310 5306
5532 5531 5527 5523 5520 5516 5515 5510 5506 5503 5499 5493 5488 5478 5468 5464 5459 5453 5447 5442 5438 5432 5425 5418 5412 5405 5398 5390 5382 5374 5367 5361 5355 5350 5344 5339 5333 5329 5324 5319 5314 5310 5306
5523 5521 5517 5515 5513 5507 5505 5505 5502 5499 5495 5490 5485 5474 5464 5460 5456 5452 5447 5439 5433 5427 5420 5414 5406 5399 5392 5385 5378 5371 5364 5359 5352 5347 5342 5337 5333 5328 5323 5319 5314 5311 5307
5511 5510 5507 5508 5505 5503 5502 5500 5498 5495 5493 5487 5480 5471 5465 5458 5451 5448 5443 5435 5428 5421 5415 5409 5402 5395 5387 5380 5373 5367 5361 5355 5349 5345 5339 5335 5330 5327 5323 5318 5315 5311 5308
5497 5499 5498 5499 5498 5496 5493 5495 5494 5491 5487 5482 5474 5468 5462 5456 5448 5442 5436 5428 5422 5416 5409 5402 5396 5389 5383 5376 5370 5365 5359 5352 5347 5343 5338 5334 5330 5326 5322 5318 5314 5311 5307
5478 5482 5486 5490 5491 5487 5483 5482 5482 5482 5480 5476 5469 5464 5459 5453 5447 5438 5431 5424 5417 5411 5405 5398 5391 5385 5378 5372 5367 5362 5357 5351 5346 5341 5336 5333 5329 5326 5321 5318 5315 5311 5307